[[{"header":{"parameterUnit":"m.s-1","parameterCategory":1,"la1":30.2991,"la2":30.254,"lo1":-89.0895,"lo2":-89.0444,"dy":0.0017,"dx":0.0017,"nx":28,"ny":28,"refTime":"2024-03-31T03:00:00:Z","depth":0,"parameterNumber":2,"parameterNumberName":"U-component_of_WINDS"},"data":[0,0,0,0,0,0,0,0,0,0,0,0,0,0,0,0,0,0,0,0,0,0,0,0,0,0,0,0,0,0,0,0,0,0,0,0,0,0,0,0,0,0,0,0,0,0,0,0,0,0,0,0,0,0,0,0,0,0,-0.5246,-0.5246,0,-0.5211,-0.5211,-0.521,-0.5192,-0.5192,-0.5192,-0.5192,-0.5156,-0.5155,-0.5154,0,0,0,0,0,0,0,0,0,0,0,0,0,-0.53,-0.5299,-0.5247,-0.5246,-0.5246,-0.5211,-0.5211,-0.521,-0.5192,-0.5192,-0.5192,-0.5192,-0.5156,-0.5155,-0.5154,0,0,0,0,0,0,0,0,0,0,0,0,0,-0.5272,-0.5299,-0.5247,-0.5232,-0.5231,-0.5211,-0.5211,-0.521,-0.5192,-0.5192,-0.5192,-0.5192,-0.5157,-0.5155,-0.5154,-0.5145,0,0,-0.5149,-0.5149,0,0,0,0,0,0,0,0,-0.5273,-0.527,-0.5235,-0.5233,-0.5232,-0.5206,-0.5216,-0.5188,-0.5192,-0.5207,-0.5192,-0.5192,-0.5173,-0.517,-0.5163,-0.5144,-0.5142,-0.5149,-0.5148,-0.5148,-0.5147,0,0,0,0,0,0,0,-0.5275,-0.5271,-0.5232,-0.5235,-0.5232,-0.5228,-0.5224,-0.5211,-0.519,-0.5206,-0.5204,-0.52,-0.5172,-0.5165,-0.5162,-0.5142,-0.5149,-0.5148,-0.5147,-0.5147,-0.5115,-0.5115,0,0,0,0,0,0,-0.5279,-0.5273,-0.5234,-0.5231,-0.5253,-0.5227,-0.5223,-0.5214,-0.519,-0.5187,-0.52,-0.52,-0.5167,-0.5164,-0.5161,-0.515,-0.5148,-0.5146,-0.5146,-0.5115,-0.5115,-0.5115,0,0,0,0,0,0,-0.5281,-0.5276,-0.5235,-0.5252,-0.5246,-0.5227,-0.5217,-0.5214,-0.5207,-0.5186,-0.5183,-0.5197,-0.5167,-0.5163,-0.515,-0.5149,-0.5146,-0.5145,-0.5115,-0.5115,-0.5115,-0.5129,0,0,0,0,0,0,-0.5282,-0.5277,-0.5273,-0.5252,-0.5245,-0.5224,-0.5217,-0.5213,-0.5204,-0.5203,-0.5182,-0.5179,-0.5167,-0.5152,-0.5148,-0.5147,-0.5143,-0.5115,-0.5115,-0.5115,-0.5128,-0.5129,-0.513,0,0,0,0,0,-0.5284,-0.5278,-0.5273,-0.5268,-0.524,-0.5224,-0.522,-0.5207,-0.5204,-0.52,-0.5188,-0.5179,-0.515,-0.5151,-0.5147,-0.5145,-0.5115,-0.5115,-0.5115,-0.5128,-0.5129,-0.513,0,0,0,0,0,0,-0.5298,-0.5275,-0.5269,-0.5255,-0.5242,-0.5221,-0.5216,-0.5208,-0.5195,-0.5194,-0.5178,-0.5173,-0.5162,-0.5152,-0.5154,-0.5136,-0.5132,-0.5131,-0.5143,-0.5144,-0.5145,-0.5147,-0.5142,0,0,0,0,0,-0.53,-0.5289,-0.5269,-0.5259,-0.5252,-0.5235,-0.5228,-0.5219,-0.5204,-0.5198,-0.5184,-0.5171,-0.5159,-0.5151,-0.5138,-0.5127,-0.5123,-0.5124,-0.5125,-0.5126,-0.5125,-0.512,-0.512,-0.5115,-0.5115,-0.5115,0,0,-0.5303,-0.5289,-0.5282,-0.5261,-0.525,-0.5239,-0.5231,-0.5219,-0.5211,-0.5196,-0.5183,-0.5173,-0.5157,-0.5145,-0.5139,-0.5136,-0.5126,-0.5126,-0.5126,-0.5125,-0.512,-0.512,-0.5121,-0.5115,-0.5115,-0.5115,0,0,-0.5303,-0.5291,-0.5282,-0.5271,-0.5254,-0.5243,-0.5241,-0.5222,-0.5214,-0.5201,-0.519,-0.5181,-0.516,-0.5149,-0.5141,-0.5139,-0.5131,-0.5136,-0.514,-0.5135,-0.5135,-0.5136,-0.5135,-0.5136,-0.5135,-0.5135,-0.5135,0,-0.5309,-0.5292,-0.5278,-0.5267,-0.5259,-0.5246,-0.5237,-0.5227,-0.5207,-0.5202,-0.5199,-0.5173,-0.5161,-0.5148,-0.5147,-0.5141,-0.5139,-0.5137,-0.5136,-0.5137,-0.5137,-0.5136,-0.5136,-0.5136,-0.5136,-0.5136,-0.5136,0,-0.53,-0.5289,-0.5283,-0.5265,-0.5256,-0.5246,-0.5231,-0.5224,-0.5216,-0.5206,-0.5193,-0.5179,-0.5164,-0.516,-0.5152,-0.5146,-0.5145,-0.514,-0.5135,-0.5138,-0.5137,-0.5137,-0.5137,-0.5137,-0.5136,-0.5136,0,0,-0.5306,-0.5282,-0.528,-0.5272,-0.5253,-0.5244,-0.5235,-0.5221,-0.5215,-0.5202,-0.5194,-0.5178,-0.5173,-0.5164,-0.5155,-0.5151,-0.5151,-0.5146,-0.5145,-0.5148,-0.5144,-0.5148,-0.5148,-0.5146,-0.5146,-0.5146,-0.5146,0,-0.5304,-0.5285,-0.5274,-0.5261,-0.525,-0.5239,-0.5231,-0.5219,-0.521,-0.52,-0.519,-0.5179,-0.5173,-0.5168,-0.5163,-0.5152,-0.515,-0.5152,-0.5139,-0.5139,-0.5143,-0.5148,-0.5151,-0.5151,-0.5145,-0.5145,-0.5145,0,-0.5297,-0.5286,-0.5272,-0.5256,-0.5251,-0.5244,-0.523,-0.5221,-0.5208,-0.5202,-0.5193,-0.5184,-0.5174,-0.5171,-0.5158,-0.5159,-0.5154,-0.5148,-0.5147,-0.5145,-0.5142,-0.5146,-0.5151,-0.5151,-0.5145,-0.5145,-0.5145,0,-0.5304,-0.5285,-0.5274,-0.5267,-0.5248,-0.5244,-0.5236,-0.5223,-0.5215,-0.5204,-0.5199,-0.5187,-0.518,-0.5171,-0.516,-0.5158,-0.5148,-0.5144,-0.5143,-0.5143,-0.5141,-0.5141,-0.5145,-0.5137,-0.5137,-0.5137,-0.5137,0,-0.5302,-0.5294,-0.5277,-0.527,-0.5261,-0.5249,-0.524,-0.5231,-0.522,-0.5212,-0.5202,-0.5195,-0.518,-0.5171,-0.5162,-0.5153,-0.515,-0.5145,-0.5143,-0.5146,-0.5147,-0.5142,-0.5141,-0.5137,-0.5137,-0.5137,-0.5137,0,-0.5307,-0.5295,-0.5283,-0.5267,-0.5262,-0.5257,-0.5243,-0.5236,-0.5227,-0.5217,-0.5214,-0.52,-0.519,-0.5178,-0.5163,-0.5157,-0.5149,-0.5145,-0.5153,-0.5152,-0.5152,-0.5152,-0.5152,-0.5152,-0.5145,-0.5145,-0.5145,0,-0.5306,-0.53,-0.5283,-0.5277,-0.527,-0.526,-0.5253,-0.5241,-0.5234,-0.522,-0.5216,-0.5204,-0.5195,-0.5178,-0.5167,-0.5156,-0.5152,-0.5153,-0.515,-0.5154,-0.5153,-0.5153,-0.5153,-0.5154,-0.5154,-0.5154,-0.5154,0,-0.5306,-0.5301,-0.5291,-0.528,-0.5272,-0.5262,-0.5252,-0.5248,-0.5234,-0.5227,-0.5216,-0.5209,-0.5195,-0.5184,-0.5172,-0.5164,-0.5157,-0.5155,-0.5155,-0.5158,-0.5162,-0.516,-0.5155,-0.5155,-0.5155,-0.5155,-0.5155,-0.5155,-0.5309,-0.5303,-0.5291,-0.5281,-0.5272,-0.5263,-0.5257,-0.5248,-0.5239,-0.5226,-0.522,-0.5209,-0.5198,-0.5181,-0.5174,-0.5166,-0.5164,-0.5163,-0.5162,-0.5162,-0.5163,-0.5164,-0.5164,-0.5164,-0.5164,-0.5164,-0.5164,0,-0.5308,-0.5301,-0.5291,-0.5278,-0.527,-0.5265,-0.5254,-0.5248,-0.5239,-0.5229,-0.5221,-0.5209,-0.5199,-0.5188,-0.5177,-0.5173,-0.517,-0.5171,-0.5171,-0.5169,-0.5166,-0.5168,-0.5174,-0.5174,-0.5174,-0.5174,-0.5174,-0.5174,-0.5307,-0.5298,-0.5292,-0.5279,-0.5271,-0.5261,-0.5255,-0.5248,-0.524,-0.5227,-0.5219,-0.5212,-0.5202,-0.5191,-0.5182,-0.5179,-0.5176,-0.5178,-0.5174,-0.517,-0.517,-0.5169,-0.517,-0.5177,-0.5177,-0.5178,-0.5178,-0.5178]},{"header":{"parameterUnit":"m.s-1","parameterCategory":1,"la1":30.2991,"la2":30.254,"lo1":-89.0895,"lo2":-89.0444,"dy":0.0017,"dx":0.0017,"nx":28,"ny":28,"refTime":"2024-03-31T03:00:00:Z","depth":0,"parameterNumber":3,"parameterNumberName":"V-component_of_WINDS"},"data":[0,0,0,0,0,0,0,0,0,0,0,0,0,0,0,0,0,0,0,0,0,0,0,0,0,0,0,0,0,0,0,0,0,0,0,0,0,0,0,0,0,0,0,0,0,0,0,0,0,0,0,0,0,0,0,0,0,0,3.4876,3.4877,0,3.4985,3.4987,3.4988,3.4996,3.4995,3.4994,3.4993,3.5098,3.5102,3.5106,0,0,0,0,0,0,0,0,0,0,0,0,0,3.4668,3.4672,3.4876,3.4877,3.4879,3.4985,3.4987,3.4988,3.4996,3.4995,3.4993,3.4992,3.5097,3.5102,3.5106,0,0,0,0,0,0,0,0,0,0,0,0,0,3.4766,3.4673,3.4876,3.4896,3.4899,3.4985,3.4987,3.4988,3.4997,3.4995,3.4993,3.4991,3.5096,3.5101,3.5107,3.5179,0,0,3.5125,3.5128,0,0,0,0,0,0,0,0,3.476,3.4774,3.4891,3.4894,3.4898,3.4975,3.4952,3.5052,3.4997,3.4959,3.4993,3.4991,3.5058,3.5067,3.5092,3.5184,3.5188,3.5126,3.5129,3.5132,3.5133,0,0,0,0,0,0,0,3.4754,3.4769,3.4919,3.4893,3.4897,3.4897,3.4909,3.4971,3.5017,3.4962,3.4963,3.4976,3.506,3.5086,3.5094,3.519,3.5125,3.5131,3.5134,3.5137,3.5346,3.5348,0,0,0,0,0,0,3.4744,3.4763,3.4915,3.4922,3.4824,3.4903,3.4916,3.4952,3.5017,3.5025,3.4978,3.4976,3.5077,3.5087,3.5098,3.5187,3.5132,3.5137,3.514,3.5344,3.5347,3.5349,0,0,0,0,0,0,3.4739,3.4757,3.4911,3.4843,3.4863,3.4908,3.4949,3.4955,3.4981,3.5028,3.5036,3.4996,3.5076,3.509,3.5159,3.519,3.514,3.5145,3.5342,3.5345,3.5348,3.5365,0,0,0,0,0,0,3.4733,3.4756,3.4785,3.4844,3.4866,3.4972,3.4951,3.4959,3.4992,3.4991,3.5048,3.5055,3.5075,3.515,3.5165,3.5198,3.515,3.5339,3.5343,3.5347,3.5361,3.5368,3.5373,0,0,0,0,0,3.4726,3.4784,3.4786,3.4805,3.4904,3.4974,3.4987,3.5011,3.4995,3.5024,3.5054,3.5054,3.5184,3.5157,3.5174,3.5209,3.5337,3.5342,3.5347,3.5359,3.5367,3.5373,0,0,0,0,0,0,3.4725,3.4792,3.4795,3.4874,3.4919,3.4976,3.5013,3.5018,3.5066,3.5063,3.5088,3.5101,3.517,3.5196,3.5165,3.5282,3.5259,3.5267,3.5263,3.527,3.5276,3.5269,3.5155,0,0,0,0,0,3.4734,3.4788,3.4842,3.4906,3.4929,3.4967,3.4998,3.5013,3.5059,3.5077,3.5113,3.5156,3.5207,3.524,3.5289,3.5365,3.5377,3.5397,3.5403,3.5407,3.5414,3.5457,3.5466,3.5364,3.5364,3.5364,0,0,3.4753,3.4796,3.4828,3.4907,3.4944,3.4997,3.4983,3.5039,3.5079,3.5085,3.5154,3.5181,3.5231,3.5304,3.5338,3.5328,3.5445,3.5413,3.5417,3.5421,3.5462,3.5472,3.5481,3.5367,3.5367,3.5366,0,0,3.4816,3.4854,3.4912,3.4949,3.5005,3.503,3.5044,3.51,3.512,3.5189,3.5196,3.5241,3.5329,3.5364,3.5394,3.547,3.5472,3.5485,3.5516,3.5557,3.5565,3.5572,3.56,3.561,3.5491,3.5491,3.5491,0,3.4832,3.4915,3.494,3.4998,3.5033,3.5043,3.5102,3.5135,3.5203,3.5226,3.5214,3.5325,3.5359,3.5441,3.546,3.5483,3.5499,3.5479,3.5562,3.557,3.5577,3.5604,3.5614,3.5493,3.5493,3.5492,3.5492,0,3.4932,3.4989,3.5029,3.5097,3.5136,3.5193,3.5227,3.5262,3.5273,3.5299,3.5369,3.5411,3.5469,3.5489,3.55,3.5573,3.5565,3.5557,3.5535,3.5588,3.5613,3.5624,3.5495,3.5494,3.5494,3.5493,0,0,3.4997,3.508,3.5094,3.5126,3.5188,3.5232,3.5289,3.5349,3.5379,3.5425,3.5473,3.5547,3.5541,3.5574,3.5588,3.5624,3.5683,3.5612,3.5614,3.5625,3.5767,3.5773,3.5784,3.5684,3.5686,3.5688,3.5763,0,3.5067,3.5173,3.5198,3.5287,3.534,3.5351,3.54,3.5443,3.5469,3.5516,3.5542,3.5595,3.5582,3.5603,3.5639,3.5668,3.5712,3.5663,3.5728,3.573,3.5717,3.5798,3.5804,3.5873,3.5773,3.5774,3.5776,0,3.5163,3.5215,3.531,3.5367,3.539,3.5435,3.5491,3.5536,3.5585,3.56,3.5638,3.5649,3.5707,3.5682,3.5762,3.5729,3.5756,3.5775,3.5778,3.5786,3.5757,3.5808,3.5896,3.5907,3.5791,3.579,3.5789,0,3.5202,3.5295,3.5364,3.5391,3.5458,3.5489,3.5518,3.5565,3.56,3.5648,3.567,3.5724,3.5754,3.5794,3.5818,3.5797,3.5897,3.5873,3.5911,3.5911,3.5932,3.5931,3.6027,3.5949,3.5949,3.5948,3.5948,0,3.5279,3.5337,3.5383,3.5426,3.5491,3.5518,3.5581,3.561,3.5652,3.5699,3.571,3.5753,3.5783,3.583,3.5849,3.5913,3.5926,3.5939,3.5944,3.5939,3.5938,3.5959,3.5955,3.5951,3.5951,3.595,3.5949,0,3.5334,3.5367,3.5444,3.5502,3.5518,3.5563,3.5612,3.5653,3.5679,3.5739,3.5754,3.5794,3.585,3.5878,3.5947,3.596,3.6033,3.6034,3.6018,3.602,3.6056,3.6053,3.617,3.6187,3.6096,3.6097,3.6098,0,3.5381,3.5426,3.549,3.5524,3.5554,3.5608,3.5644,3.5672,3.5708,3.5767,3.5801,3.5858,3.5906,3.5995,3.6028,3.6081,3.6084,3.6121,3.6092,3.6086,3.6086,3.6083,3.6088,3.6127,3.6128,3.6128,3.6129,0,3.5461,3.5476,3.5528,3.5587,3.563,3.5676,3.5722,3.5748,3.5783,3.5823,3.5883,3.592,3.5992,3.6048,3.6104,3.6131,3.6136,3.6138,3.615,3.6146,3.6135,3.6142,3.6033,3.6135,3.6135,3.6134,3.6134,3.6134,3.5514,3.5555,3.5608,3.5665,3.5703,3.5746,3.5788,3.582,3.5871,3.5933,3.5946,3.6008,3.6055,3.6131,3.616,3.6208,3.62,3.6217,3.6221,3.6225,3.6228,3.6127,3.6218,3.6218,3.6218,3.6218,3.6218,0,3.5596,3.563,3.5683,3.5749,3.5794,3.5796,3.5847,3.5884,3.594,3.5984,3.6032,3.61,3.6155,3.6193,3.6249,3.628,3.6283,3.6293,3.6292,3.6298,3.6231,3.6216,3.629,3.629,3.629,3.629,3.629,3.629,3.5644,3.5714,3.5735,3.5824,3.5857,3.5921,3.595,3.5989,3.6025,3.6101,3.6148,3.6173,3.6215,3.6274,3.6324,3.6333,3.6353,3.6364,3.6374,3.631,3.6303,3.6296,3.6282,3.6368,3.6368,3.6437,3.6438,3.6438]}]]